| time (UTC) | temp C | wind direction | speed KPH | gust KPH | rain 1hr cm | rain 24hr cm | rain mn cm | humidity % | barometer mb |
| 20260506155944 | 12 | 304 | 6.4 | 17.7 | 0.00 | 2.54 | 0.61 | 70 | 1011.6 |
| 20260506155444 | 12 | 292 | 4.8 | 12.9 | 0.00 | 2.54 | 0.61 | 72 | 1011.5 |
| 20260506154916 | 12 | 331 | 4.8 | 12.9 | 0.00 | 2.54 | 0.61 | 72 | 1011.6 |
| 20260506154414 | 12 | 5 | 6.4 | 16.1 | 0.00 | 2.54 | 0.61 | 73 | 1011.5 |
| 20260506153847 | 11 | 51 | 6.4 | 16.1 | 0.00 | 2.54 | 0.61 | 73 | 1011.5 |
| 20260506153347 | 11 | 329 | 4.8 | 16.1 | 0.00 | 2.54 | 0.61 | 75 | 1011.4 |
| 20260506152847 | 11 | 5 | 6.4 | 16.1 | 0.00 | 2.54 | 0.61 | 74 | 1011.5 |
| 20260506152346 | 11 | 329 | 6.4 | 12.9 | 0.00 | 2.54 | 0.61 | 76 | 1011.4 |
| 20260506151822 | 11 | 16 | 6.4 | 17.7 | 0.00 | 2.54 | 0.61 | 76 | 1011.3 |
| 20260506151300 | 11 | 319 | 4.8 | 16.1 | 0.00 | 2.54 | 0.61 | 76 | 1011.0 |
| 20260506150739 | 11 | 324 | 4.8 | 17.7 | 0.00 | 2.54 | 0.61 | 77 | 1011.0 |
| 20260506150215 | 11 | 316 | 4.8 | 17.7 | 0.00 | 2.54 | 0.61 | 77 | 1011.0 |
| 20260506145723 | 11 | 348 | 4.8 | 16.1 | 0.00 | 2.54 | 0.61 | 77 | 1010.8 |
| 20260506145208 | 11 | 33 | 4.8 | 16.1 | 0.00 | 2.54 | 0.61 | 78 | 1010.7 |
| 20260506144704 | 11 | 324 | 6.4 | 16.1 | 0.00 | 2.54 | 0.61 | 77 | 1010.7 |
| 20260506144147 | 11 | 311 | 6.4 | 16.1 | 0.00 | 2.54 | 0.61 | 76 | 1010.6 |
| 20260506143646 | 11 | 300 | 4.8 | 12.9 | 0.00 | 2.54 | 0.61 | 76 | 1010.6 |
| 20260506143147 | 11 | 55 | 6.4 | 14.5 | 0.00 | 2.54 | 0.61 | 76 | 1010.7 |
| 20260506142648 | 11 | 13 | 4.8 | 16.1 | 0.00 | 2.54 | 0.61 | 76 | 1010.6 |
| 20260506142125 | 11 | 309 | 4.8 | 16.1 | 0.00 | 2.54 | 0.61 | 75 | 1010.5 |
| 20260506141600 | 11 | 285 | 6.4 | 14.5 | 0.00 | 2.54 | 0.61 | 74 | 1010.7 |
| 20260506141047 | 11 | 339 | 4.8 | 14.5 | 0.00 | 2.54 | 0.61 | 74 | 1010.6 |
| 20260506140545 | 11 | 243 | 4.8 | 16.1 | 0.00 | 2.54 | 0.61 | 77 | 1010.6 |
| 20260506140040 | 11 | 323 | 6.4 | 16.1 | 0.00 | 2.54 | 0.61 | 75 | 1010.5 |
| 20260506135538 | 10 | 0 | 4.8 | 14.5 | 0.00 | 2.54 | 0.61 | 74 | 1010.4 |
| 20260506135039 | 10 | 318 | 3.2 | 14.5 | 0.00 | 2.54 | 0.61 | 76 | 1010.4 |
| 20260506134520 | 10 | 313 | 3.2 | 11.3 | 0.00 | 2.54 | 0.61 | 78 | 1010.2 |
| 20260506134000 | 10 | 345 | 3.2 | 9.7 | 0.00 | 2.54 | 0.61 | 79 | 1010.1 |
| 20260506133501 | 10 | 348 | 3.2 | 16.1 | 0.00 | 2.54 | 0.61 | 79 | 1010.0 |
| 20260506133005 | 10 | 323 | 3.2 | 16.1 | 0.00 | 2.54 | 0.61 | 80 | 1010.0 |
| 20260506132441 | 10 | 299 | 3.2 | 8.0 | 0.00 | 2.54 | 0.61 | 83 | 1009.9 |
| 20260506131917 | 9 | 302 | 3.2 | 9.7 | 0.00 | 2.54 | 0.61 | 86 | 1010.0 |
| 20260506131416 | 9 | 324 | 3.2 | 8.0 | 0.00 | 2.54 | 0.61 | 89 | 1009.9 |
| 20260506130919 | 9 | 310 | 3.2 | 9.7 | 0.00 | 2.54 | 0.61 | 90 | 1009.8 |
| 20260506130355 | 9 | 252 | 3.2 | 9.7 | 0.00 | 2.54 | 0.61 | 91 | 1009.6 |
| 20260506125855 | 9 | 252 | 1.6 | 6.4 | 0.00 | 2.54 | 0.61 | 91 | 1009.6 |
| 20260506125359 | 8 | 265 | 3.2 | 6.4 | 0.00 | 2.54 | 0.61 | 91 | 1009.5 |
| 20260506124856 | 8 | 259 | 3.2 | 9.7 | 0.00 | 2.54 | 0.61 | 91 | 1009.4 |
| 20260506124351 | 8 | 251 | 3.2 | 9.7 | 0.00 | 2.54 | 0.61 | 91 | 1009.3 |
| 20260506123847 | 8 | 271 | 3.2 | 11.3 | 0.00 | 2.54 | 0.61 | 91 | 1009.3 |
| 20260506123346 | 8 | 323 | 3.2 | 11.3 | 0.00 | 2.54 | 0.61 | 92 | 1009.2 |
| 20260506122837 | 8 | 304 | 3.2 | 6.4 | 0.00 | 2.54 | 0.61 | 92 | 1009.2 |
| 20260506122312 | 8 | 265 | 3.2 | 6.4 | 0.00 | 2.54 | 0.61 | 92 | 1009.1 |
| 20260506121749 | 7 | 266 | 1.6 | 6.4 | 0.00 | 2.54 | 0.61 | 92 | 1009.0 |
| 20260506121221 | 7 | 295 | 1.6 | 9.7 | 0.00 | 2.54 | 0.61 | 92 | 1008.9 |
| 20260506120720 | 7 | 264 | 3.2 | 9.7 | 0.00 | 2.54 | 0.61 | 92 | 1008.9 |
| 20260506120219 | 7 | 242 | 3.2 | 8.0 | 0.00 | 2.54 | 0.61 | 92 | 1008.8 |
| 20260506115650 | 7 | 241 | 1.6 | 4.8 | 0.00 | 2.54 | 0.61 | 92 | 1008.8 |
| 20260506115123 | 7 | 241 | 3.2 | 8.0 | 0.03 | 2.54 | 0.61 | 92 | 1009.0 |
| 20260506114557 | 7 | 255 | 3.2 | 8.0 | 0.03 | 2.54 | 0.61 | 92 | 1009.0 |
| 20260506114056 | 7 | 250 | 3.2 | 9.7 | 0.03 | 2.54 | 0.61 | 92 | 1009.1 |
| 20260506113542 | 7 | 259 | 3.2 | 9.7 | 0.03 | 2.54 | 0.61 | 92 | 1009.0 |
| 20260506113044 | 7 | 246 | 1.6 | 6.4 | 0.03 | 2.54 | 0.61 | 92 | 1009.1 |
| 20260506112541 | 7 | 246 | 3.2 | 4.8 | 0.03 | 2.54 | 0.61 | 92 | 1009.0 |
| 20260506112020 | 7 | 246 | 3.2 | 6.4 | 0.03 | 2.54 | 0.61 | 92 | 1008.9 |
| 20260506111450 | 7 | 232 | 1.6 | 6.4 | 0.03 | 2.54 | 0.61 | 92 | 1008.7 |
| 20260506110936 | 7 | 261 | 0.0 | 3.2 | 0.03 | 2.54 | 0.61 | 93 | 1008.5 |
| 20260506110434 | 7 | 261 | 0.0 | 3.2 | 0.03 | 2.54 | 0.61 | 93 | 1008.2 |
| 20260506105906 | 7 | 261 | 1.6 | 6.4 | 0.03 | 2.54 | 0.61 | 93 | 1008.1 |
| 20260506105405 | 7 | 261 | 1.6 | 6.4 | 0.00 | 2.51 | 0.61 | 93 | 1008.1 |
| 20260506104844 | 7 | 262 | 0.0 | 6.4 | 0.00 | 2.51 | 0.58 | 93 | 1008.1 |
| 20260506104343 | 7 | 271 | 0.0 | 4.8 | 0.00 | 2.51 | 0.58 | 93 | 1007.9 |
| 20260506103842 | 7 | 271 | 1.6 | 4.8 | 0.00 | 2.51 | 0.58 | 93 | 1007.8 |
| 20260506103343 | 7 | 267 | 1.6 | 4.8 | 0.00 | 2.51 | 0.58 | 93 | 1007.9 |
| 20260506102815 | 7 | 282 | 0.0 | 4.8 | 0.00 | 2.51 | 0.58 | 93 | 1007.9 |
| 20260506102314 | 7 | 292 | 0.0 | 0.0 | 0.00 | 2.51 | 0.58 | 93 | 1007.8 |
| 20260506101748 | 7 | 292 | 0.0 | 0.0 | 0.00 | 2.51 | 0.58 | 93 | 1007.8 |
| 20260506101219 | 7 | 292 | 0.0 | 3.2 | 0.00 | 2.51 | 0.58 | 93 | 1007.7 |
| 20260506100718 | 7 | 292 | 0.0 | 3.2 | 0.00 | 2.51 | 0.58 | 93 | 1007.7 |
| 20260506100153 | 6 | 292 | 0.0 | 3.2 | 0.00 | 2.51 | 0.58 | 93 | 1007.5 |
| 20260506095637 | 7 | 292 | 0.0 | 3.2 | 0.00 | 2.51 | 0.58 | 93 | 1007.6 |
| 20260506095129 | 7 | 292 | 0.0 | 4.8 | 0.03 | 2.51 | 0.58 | 93 | 1007.7 |
| 20260506094628 | 7 | 292 | 0.0 | 4.8 | 0.03 | 2.51 | 0.58 | 93 | 1008.0 |
| 20260506094135 | 7 | 334 | 0.0 | 0.0 | 0.03 | 2.51 | 0.58 | 93 | 1008.1 |
| 20260506093603 | 7 | 334 | 0.0 | 0.0 | 0.03 | 2.51 | 0.58 | 93 | 1008.0 |
| 20260506093100 | 7 | 334 | 0.0 | 0.0 | 0.03 | 2.51 | 0.58 | 93 | 1008.0 |
| 20260506092533 | 7 | 334 | 0.0 | 0.0 | 0.03 | 2.51 | 0.58 | 93 | 1007.9 |
| 20260506092036 | 7 | 334 | 0.0 | 0.0 | 0.03 | 2.51 | 0.58 | 93 | 1008.6 |
| 20260506091504 | 6 | 334 | 0.0 | 0.0 | 0.03 | 2.51 | 0.58 | 93 | 1007.8 |
| 20260506090937 | 6 | 334 | 0.0 | 0.0 | 0.03 | 2.51 | 0.58 | 93 | 1007.9 |
| 20260506090435 | 7 | 334 | 0.0 | 0.0 | 0.03 | 2.51 | 0.58 | 93 | 1008.0 |
| 20260506085907 | 7 | 334 | 0.0 | 0.0 | 0.03 | 2.51 | 0.58 | 93 | 1008.0 |
| 20260506085405 | 7 | 334 | 0.0 | 0.0 | 0.00 | 2.49 | 0.56 | 93 | 1008.2 |
| 20260506084901 | 7 | 334 | 0.0 | 0.0 | 0.00 | 2.49 | 0.56 | 93 | 1008.2 |
| 20260506084359 | 7 | 334 | 0.0 | 0.0 | 0.03 | 2.49 | 0.56 | 93 | 1008.1 |
| 20260506083831 | 7 | 334 | 0.0 | 0.0 | 0.03 | 2.49 | 0.56 | 93 | 1008.3 |
| 20260506083329 | 7 | 334 | 0.0 | 0.0 | 0.03 | 2.49 | 0.56 | 93 | 1008.0 |
| 20260506082825 | 7 | 334 | 0.0 | 0.0 | 0.03 | 2.49 | 0.56 | 93 | 1007.8 |
| 20260506082323 | 7 | 334 | 0.0 | 0.0 | 0.03 | 2.49 | 0.56 | 93 | 1007.5 |
| 20260506081755 | 7 | 334 | 0.0 | 0.0 | 0.03 | 2.49 | 0.56 | 93 | 1007.8 |
| 20260506081253 | 7 | 334 | 0.0 | 0.0 | 0.03 | 2.49 | 0.56 | 93 | 1007.9 |
| 20260506080726 | 6 | 334 | 0.0 | 3.2 | 0.05 | 2.49 | 0.56 | 93 | 1007.5 |
| 20260506080223 | 6 | 334 | 0.0 | 3.2 | 0.05 | 2.49 | 0.56 | 93 | 1007.2 |
| 20260506073026 | 7 | 334 | 0.0 | 0.0 | 0.08 | 2.46 | 0.53 | 93 | 1008.2 |
| 20260506072523 | 7 | 334 | 0.0 | 1.6 | 0.08 | 2.46 | 0.53 | 93 | 1008.2 |
| 20260506072034 | 7 | 334 | 0.0 | 1.6 | 0.08 | 2.46 | 0.53 | 93 | 1008.0 |
| 20260506071454 | 7 | 334 | 0.0 | 6.4 | 0.10 | 2.46 | 0.53 | 93 | 1007.9 |
| 20260506070920 | 7 | 334 | 1.6 | 6.4 | 0.08 | 2.44 | 0.51 | 93 | 1007.6 |
| 20260506070355 | 7 | 334 | 1.6 | 6.4 | 0.08 | 2.44 | 0.51 | 93 | 1007.4 |
| 20260506062224 | 7 | 336 | 1.6 | 8.0 | 0.23 | 2.39 | 0.46 | 94 | 1007.7 |
| 20260506061717 | 7 | 313 | 1.6 | 8.0 | 0.23 | 2.39 | 0.46 | 94 | 1007.8 |
| 20260506061216 | 7 | 313 | 3.2 | 9.7 | 0.23 | 2.36 | 0.43 | 94 | 1007.8 |
| 20260506060711 | 7 | 312 | 1.6 | 9.7 | 0.25 | 2.36 | 0.43 | 95 | 1007.6 |
| 20260506060213 | 7 | 11 | 0.0 | 8.0 | 0.23 | 2.34 | 0.41 | 95 | 1007.7 |
| 20260506051113 | 8 | 251 | 0.0 | 0.0 | 0.18 | 2.13 | 0.20 | 95 | 1007.9 |
| 20260506050546 | 8 | 251 | 0.0 | 0.0 | 0.18 | 2.11 | 0.18 | 95 | 1008.0 |
| 20260506045008 | 8 | 251 | 0.0 | 0.0 | 0.10 | 2.03 | 0.13 | 95 | 1008.1 |
| 20260506044505 | 8 | 251 | 0.0 | 0.0 | 0.13 | 2.03 | 0.10 | 95 | 1008.0 |
| 20260506044005 | 8 | 251 | 0.0 | 0.0 | 0.10 | 2.01 | 0.08 | 95 | 1008.0 |
| 20260506043445 | 8 | 251 | 0.0 | 0.0 | 0.13 | 2.01 | 0.08 | 95 | 1008.0 |
| 20260506042925 | 8 | 251 | 0.0 | 0.0 | 0.13 | 1.98 | 0.05 | 95 | 1008.0 |
| 20260506042408 | 8 | 251 | 0.0 | 0.0 | 0.13 | 1.98 | 0.05 | 95 | 1008.0 |
| 20260506041910 | 9 | 250 | 0.0 | 0.0 | 0.10 | 1.96 | 0.03 | 95 | 1008.0 |
| 20260506041404 | 9 | 250 | 0.0 | 0.0 | 0.13 | 1.96 | 0.03 | 95 | 1008.0 |
| 20260506040901 | 9 | 250 | 0.0 | 0.0 | 0.15 | 1.96 | 0.03 | 95 | 1008.1 |
| 20260506040408 | 9 | 250 | 0.0 | 0.0 | 0.13 | 1.93 | 0.00 | 95 | 1007.9 |
| 20260506035901 | 9 | 250 | 0.0 | 0.0 | 0.13 | 1.93 | 1.93 | 95 | 1007.6 |
| 20260506035400 | 9 | 250 | 0.0 | 0.0 | 0.15 | 1.93 | 1.93 | 95 | 1007.8 |
| 20260506034834 | 9 | 250 | 0.0 | 0.0 | 0.15 | 1.91 | 1.91 | 95 | 1008.0 |
| 20260506034306 | 9 | 250 | 0.0 | 0.0 | 0.18 | 1.91 | 1.91 | 95 | 1008.1 |
| 20260506033803 | 9 | 250 | 0.0 | 0.0 | 0.18 | 1.88 | 1.88 | 95 | 1008.2 |
| 20260506033301 | 9 | 250 | 0.0 | 1.6 | 0.18 | 1.88 | 1.88 | 95 | 1008.2 |
| 20260506032753 | 9 | 250 | 0.0 | 1.6 | 0.18 | 1.85 | 1.85 | 95 | 1008.4 |
| 20260506032253 | 8 | 250 | 0.0 | 0.0 | 0.20 | 1.85 | 1.85 | 95 | 1008.5 |
| 20260506031724 | 8 | 250 | 0.0 | 0.0 | 0.18 | 1.83 | 1.83 | 95 | 1008.6 |
| 20260506031157 | 8 | 250 | 0.0 | 0.0 | 0.20 | 1.83 | 1.83 | 95 | 1008.6 |
| 20260506030657 | 8 | 250 | 0.0 | 0.0 | 0.20 | 1.80 | 1.80 | 95 | 1008.5 |
| 20260506030127 | 8 | 250 | 0.0 | 0.0 | 0.23 | 1.80 | 1.80 | 95 | 1008.6 |
| 20260506025622 | 8 | 250 | 0.0 | 0.0 | 0.23 | 1.78 | 1.78 | 95 | 1008.5 |
| 20260506025118 | 8 | 250 | 0.0 | 0.0 | 0.23 | 1.75 | 1.78 | 95 | 1008.7 |
| 20260506024553 | 8 | 250 | 0.0 | 0.0 | 0.23 | 1.73 | 1.75 | 95 | 1008.6 |
| 20260506024046 | 8 | 251 | 0.0 | 0.0 | 0.23 | 1.73 | 1.73 | 95 | 1008.4 |
| 20260506023546 | 8 | 252 | 0.0 | 0.0 | 0.23 | 1.70 | 1.70 | 95 | 1008.6 |
| 20260506023032 | 9 | 252 | 0.0 | 0.0 | 0.20 | 1.68 | 1.68 | 95 | 1008.5 |
| 20260506022532 | 9 | 252 | 0.0 | 0.0 | 0.20 | 1.68 | 1.68 | 95 | 1008.4 |
| 20260506022031 | 9 | 252 | 0.0 | 0.0 | 0.18 | 1.65 | 1.65 | 95 | 1008.5 |
| 20260506021527 | 8 | 252 | 0.0 | 0.0 | 0.15 | 1.63 | 1.63 | 95 | 1008.4 |
| 20260506021035 | 8 | 252 | 0.0 | 0.0 | 0.15 | 1.63 | 1.63 | 94 | 1008.3 |
| 20260506020507 | 9 | 250 | 0.0 | 0.0 | 0.13 | 1.57 | 1.60 | 94 | 1008.2 |
| 20260506020009 | 9 | 250 | 0.0 | 0.0 | 0.10 | 1.55 | 1.57 | 94 | 1008.2 |
| 20260506015436 | 9 | 250 | 0.0 | 0.0 | 0.10 | 1.52 | 1.55 | 94 | 1008.3 |
| 20260506014932 | 9 | 250 | 0.0 | 0.0 | 0.10 | 1.52 | 1.52 | 95 | 1008.1 |
| 20260506014432 | 9 | 250 | 0.0 | 0.0 | 0.08 | 1.50 | 1.50 | 95 | 1008.2 |
| 20260506013906 | 9 | 250 | 0.0 | 0.0 | 0.10 | 1.50 | 1.50 | 95 | 1008.0 |
| 20260506013347 | 9 | 250 | 0.0 | 0.0 | 0.08 | 1.47 | 1.47 | 94 | 1007.9 |
| 20260506012821 | 9 | 250 | 0.0 | 0.0 | 0.10 | 1.47 | 1.47 | 94 | 1007.9 |
| 20260506012313 | 9 | 250 | 0.0 | 0.0 | 0.13 | 1.47 | 1.47 | 94 | 1007.6 |
| 20260506011746 | 9 | 250 | 0.0 | 0.0 | 0.15 | 1.47 | 1.47 | 94 | 1007.7 |
| 20260506011229 | 8 | 250 | 0.0 | 0.0 | 0.15 | 1.47 | 1.47 | 94 | 1007.6 |
| 20260506010704 | 8 | 250 | 0.0 | 0.0 | 0.15 | 1.45 | 1.45 | 94 | 1007.7 |
| 20260506010205 | 8 | 250 | 0.0 | 0.0 | 0.15 | 1.45 | 1.45 | 94 | 1007.6 |
| 20260506005649 | 8 | 250 | 0.0 | 0.0 | 0.15 | 1.45 | 1.45 | 94 | 1007.6 |
| 20260506005148 | 8 | 250 | 0.0 | 0.0 | 0.13 | 1.42 | 1.42 | 94 | 1007.8 |
| 20260506004636 | 8 | 250 | 0.0 | 0.0 | 0.15 | 1.42 | 1.42 | 94 | 1007.8 |
| 20260506004135 | 8 | 250 | 0.0 | 0.0 | 0.13 | 1.40 | 1.40 | 94 | 1007.8 |
| 20260506003633 | 9 | 250 | 1.6 | 4.8 | 0.13 | 1.40 | 1.40 | 94 | 1007.7 |
| 20260506003108 | 9 | 250 | 1.6 | 4.8 | 0.10 | 1.37 | 1.37 | 94 | 1007.8 |
| 20260506002553 | 9 | 281 | 0.0 | 3.2 | 0.13 | 1.37 | 1.37 | 94 | 1007.9 |
| 20260506002051 | 9 | 289 | 0.0 | 0.0 | 0.10 | 1.35 | 1.35 | 94 | 1007.6 |
| 20260506001533 | 9 | 290 | 0.0 | 0.0 | 0.08 | 1.32 | 1.32 | 94 | 1007.7 |
| 20260506001029 | 9 | 290 | 0.0 | 0.0 | 0.08 | 1.32 | 1.32 | 94 | 1007.5 |
| 20260506000530 | 9 | 290 | 0.0 | 0.0 | 0.05 | 1.30 | 1.30 | 94 | 1007.5 |
| 20260506000030 | 10 | 290 | 0.0 | 0.0 | 0.05 | 1.30 | 1.30 | 94 | 1007.4 |
| 20260505235503 | 10 | 290 | 0.0 | 0.0 | 0.08 | 1.30 | 1.30 | 94 | 1007.2 |
| 20260505234941 | 10 | 290 | 0.0 | 1.6 | 0.08 | 1.30 | 1.30 | 94 | 1007.3 |
| 20260505234416 | 10 | 290 | 0.0 | 1.6 | 0.05 | 1.27 | 1.27 | 94 | 1007.4 |
| 20260505233929 | 10 | 290 | 0.0 | 1.6 | 0.05 | 1.27 | 1.27 | 94 | 1007.4 |
| 20260505233418 | 10 | 290 | 0.0 | 4.8 | 0.08 | 1.27 | 1.27 | 94 | 1007.2 |
| 20260505232918 | 10 | 290 | 1.6 | 4.8 | 0.10 | 1.27 | 1.27 | 94 | 1007.2 |
| 20260505232351 | 10 | 290 | 0.0 | 4.8 | 0.10 | 1.24 | 1.24 | 94 | 1007.2 |
| 20260505231826 | 10 | 290 | 0.0 | 4.8 | 0.13 | 1.24 | 1.24 | 94 | 1007.3 |
| 20260505231328 | 10 | 289 | 0.0 | 4.8 | 0.15 | 1.24 | 1.24 | 94 | 1007.4 |
| 20260505230801 | 10 | 289 | 0.0 | 4.8 | 0.18 | 1.24 | 1.24 | 94 | 1007.3 |
| 20260505230237 | 10 | 337 | 0.0 | 3.2 | 0.20 | 1.24 | 1.24 | 94 | 1007.3 |
| 20260505225711 | 10 | 322 | 0.0 | 0.0 | 0.23 | 1.22 | 1.22 | 94 | 1007.3 |
| 20260505225200 | 10 | 322 | 0.0 | 0.0 | 0.28 | 1.22 | 1.22 | 94 | 1007.6 |
| 20260505224655 | 10 | 328 | 0.0 | 0.0 | 0.30 | 1.22 | 1.22 | 94 | 1007.5 |
| 20260505224157 | 10 | 329 | 1.6 | 4.8 | 0.33 | 1.22 | 1.22 | 94 | 1007.6 |
| 20260505223631 | 10 | 329 | 1.6 | 4.8 | 0.33 | 1.19 | 1.19 | 94 | 1007.6 |
| 20260505223126 | 10 | 309 | 1.6 | 4.8 | 0.33 | 1.17 | 1.17 | 94 | 1008.0 |
| 20260505222600 | 10 | 347 | 1.6 | 9.7 | 0.33 | 1.14 | 1.14 | 94 | 1007.7 |
| 20260505222034 | 10 | 296 | 1.6 | 6.4 | 0.30 | 1.12 | 1.12 | 94 | 1007.4 |
| 20260505221528 | 10 | 288 | 1.6 | 6.4 | 0.28 | 1.09 | 1.09 | 94 | 1007.4 |
| 20260505221023 | 10 | 286 | 1.6 | 6.4 | 0.28 | 1.07 | 1.07 | 94 | 1007.5 |
| 20260505220517 | 10 | 279 | 1.6 | 12.9 | 0.25 | 1.04 | 1.04 | 94 | 1007.4 |
| 20260505220010 | 10 | 294 | 3.2 | 12.9 | 0.25 | 1.02 | 1.02 | 94 | 1007.3 |
| 20260505215510 | 10 | 304 | 1.6 | 6.4 | 0.20 | 0.97 | 0.97 | 94 | 1007.3 |
| 20260505214941 | 10 | 333 | 1.6 | 6.4 | 0.18 | 0.94 | 0.94 | 94 | 1007.3 |
| 20260505214416 | 10 | 344 | 1.6 | 11.3 | 0.18 | 0.91 | 0.91 | 93 | 1007.2 |
| 20260505213912 | 10 | 15 | 1.6 | 11.3 | 0.13 | 0.86 | 0.89 | 93 | 1007.3 |
| 20260505213345 | 10 | 348 | 1.6 | 8.0 | 0.13 | 0.84 | 0.84 | 93 | 1007.3 |
| 20260505212842 | 10 | 329 | 3.2 | 9.7 | 0.10 | 0.81 | 0.81 | 93 | 1007.1 |
| 20260505212314 | 10 | 348 | 3.2 | 8.0 | 0.10 | 0.81 | 0.81 | 93 | 1006.9 |
| 20260505211812 | 10 | 340 | 3.2 | 9.7 | 0.13 | 0.81 | 0.81 | 93 | 1006.8 |
| 20260505211245 | 10 | 313 | 3.2 | 12.9 | 0.13 | 0.79 | 0.79 | 93 | 1006.6 |
| 20260505210742 | 11 | 10 | 3.2 | 12.9 | 0.13 | 0.79 | 0.79 | 93 | 1006.7 |
| 20260505210239 | 11 | 327 | 3.2 | 9.7 | 0.13 | 0.76 | 0.76 | 93 | 1006.8 |
| 20260505205715 | 11 | 292 | 3.2 | 6.4 | 0.15 | 0.76 | 0.76 | 93 | 1006.8 |
| 20260505205212 | 11 | 279 | 1.6 | 6.4 | 0.15 | 0.76 | 0.76 | 93 | 1006.7 |
| 20260505204644 | 11 | 256 | 3.2 | 9.7 | 0.15 | 0.74 | 0.74 | 93 | 1006.7 |
| 20260505204120 | 11 | 281 | 4.8 | 9.7 | 0.18 | 0.74 | 0.74 | 93 | 1006.9 |
| 20260505203552 | 11 | 286 | 3.2 | 8.0 | 0.20 | 0.71 | 0.71 | 93 | 1007.0 |
| 20260505203024 | 11 | 263 | 3.2 | 8.0 | 0.20 | 0.71 | 0.71 | 93 | 1007.0 |
| 20260505202522 | 11 | 302 | 3.2 | 14.5 | 0.20 | 0.71 | 0.71 | 93 | 1007.1 |
| 20260505201954 | 11 | 306 | 1.6 | 14.5 | 0.20 | 0.69 | 0.71 | 93 | 1007.4 |
| 20260505201448 | 11 | 254 | 1.6 | 11.3 | 0.25 | 0.69 | 0.69 | 93 | 1007.3 |
| 20260505200948 | 11 | 253 | 3.2 | 11.3 | 0.25 | 0.66 | 0.66 | 93 | 1007.3 |
| 20260505200447 | 11 | 254 | 4.8 | 19.3 | 0.28 | 0.64 | 0.64 | 93 | 1007.4 |
| 20260505195910 | 11 | 261 | 4.8 | 19.3 | 0.30 | 0.61 | 0.61 | 93 | 1007.3 |
| 20260505195408 | 12 | 258 | 4.8 | 17.7 | 0.33 | 0.61 | 0.61 | 93 | 1007.5 |
| 20260505194841 | 12 | 302 | 6.4 | 17.7 | 0.33 | 0.58 | 0.58 | 93 | 1007.5 |
| 20260505194337 | 12 | 333 | 6.4 | 17.7 | 0.33 | 0.56 | 0.56 | 93 | 1007.4 |
| 20260505193830 | 12 | 270 | 4.8 | 17.7 | 0.33 | 0.53 | 0.53 | 92 | 1007.4 |
| 20260505193326 | 12 | 292 | 3.2 | 9.7 | 0.33 | 0.51 | 0.51 | 92 | 1007.3 |
| 20260505192825 | 13 | 273 | 3.2 | 11.3 | 0.36 | 0.51 | 0.51 | 92 | 1007.1 |
| 20260505192322 | 13 | 257 | 3.2 | 11.3 | 0.36 | 0.48 | 0.48 | 93 | 1007.0 |
| 20260505191756 | 13 | 254 | 1.6 | 6.4 | 0.36 | 0.46 | 0.46 | 92 | 1007.0 |
| 20260505191252 | 13 | 262 | 3.2 | 6.4 | 0.38 | 0.43 | 0.43 | 92 | 1006.9 |
| 20260505190727 | 13 | 266 | 3.2 | 6.4 | 0.36 | 0.38 | 0.38 | 92 | 1007.0 |
| 20260505190225 | 13 | 251 | 3.2 | 8.0 | 0.30 | 0.33 | 0.33 | 92 | 1007.0 |
| 20260505185714 | 13 | 232 | 3.2 | 8.0 | 0.30 | 0.30 | 0.30 | 92 | 1006.8 |
| 20260505185211 | 13 | 244 | 3.2 | 11.3 | 0.28 | 0.28 | 0.28 | 91 | 1006.8 |
| 20260505184642 | 13 | 259 | 1.6 | 11.3 | 0.25 | 0.25 | 0.25 | 91 | 1006.8 |
| 20260505184143 | 13 | 247 | 1.6 | 6.4 | 0.23 | 0.23 | 0.23 | 91 | 1006.8 |
| 20260505183647 | 13 | 247 | 3.2 | 8.0 | 0.20 | 0.20 | 0.20 | 90 | 1006.7 |
| 20260505183139 | 13 | 230 | 3.2 | 8.0 | 0.18 | 0.18 | 0.18 | 90 | 1006.7 |
| 20260505182643 | 13 | 234 | 3.2 | 6.4 | 0.13 | 0.13 | 0.13 | 89 | 1006.8 |
| 20260505182137 | 14 | 269 | 3.2 | 11.3 | 0.10 | 0.10 | 0.10 | 89 | 1006.5 |
| 20260505181641 | 14 | 252 | 3.2 | 11.3 | 0.08 | 0.08 | 0.08 | 88 | 1006.5 |
| 20260505181113 | 14 | 254 | 3.2 | 4.8 | 0.05 | 0.05 | 0.05 | 88 | 1006.5 |
| 20260505180611 | 15 | 255 | 3.2 | 4.8 | 0.03 | 0.03 | 0.03 | 87 | 1006.5 |
| 20260505180044 | 15 | 255 | 3.2 | 9.7 | 0.00 | 0.00 | 0.00 | 86 | 1006.6 |
| 20260505175516 | 15 | 255 | 4.8 | 12.9 | 0.00 | 0.00 | 0.00 | 85 | 1006.5 |
| 20260505175015 | 15 | 219 | 3.2 | 12.9 | 0.00 | 0.00 | 0.00 | 85 | 1006.6 |
| 20260505174516 | 15 | 257 | 3.2 | 11.3 | 0.00 | 0.00 | 0.00 | 84 | 1006.5 |
| 20260505173944 | 15 | 245 | 4.8 | 12.9 | 0.00 | 0.00 | 0.00 | 83 | 1006.5 |
| 20260505173447 | 15 | 256 | 4.8 | 16.1 | 0.00 | 0.00 | 0.00 | 83 | 1006.5 |
| 20260505172917 | 15 | 257 | 6.4 | 16.1 | 0.00 | 0.00 | 0.00 | 83 | 1006.5 |
| 20260505172353 | 15 | 250 | 6.4 | 16.1 | 0.00 | 0.00 | 0.00 | 82 | 1006.6 |
| 20260505171828 | 16 | 247 | 4.8 | 14.5 | 0.00 | 0.00 | 0.00 | 81 | 1006.6 |
| 20260505171306 | 16 | 244 | 4.8 | 11.3 | 0.00 | 0.00 | 0.00 | 80 | 1006.5 |
| 20260505170805 | 16 | 269 | 4.8 | 14.5 | 0.00 | 0.00 | 0.00 | 80 | 1006.4 |
| 20260505170240 | 16 | 254 | 6.4 | 19.3 | 0.00 | 0.00 | 0.00 | 80 | 1006.5 |
| 20260505165719 | 16 | 269 | 6.4 | 19.3 | 0.00 | 0.00 | 0.00 | 79 | 1006.4 |
| 20260505165153 | 16 | 256 | 6.4 | 19.3 | 0.00 | 0.00 | 0.00 | 80 | 1006.4 |
| 20260505164630 | 16 | 256 | 6.4 | 19.3 | 0.00 | 0.00 | 0.00 | 80 | 1006.4 |
| 20260505164109 | 16 | 277 | 6.4 | 17.7 | 0.00 | 0.00 | 0.00 | 80 | 1006.3 |
| 20260505163609 | 16 | 267 | 6.4 | 17.7 | 0.00 | 0.00 | 0.00 | 80 | 1006.4 |
| 20260505163054 | 16 | 240 | 6.4 | 17.7 | 0.00 | 0.00 | 0.00 | 79 | 1006.3 |
| 20260505162550 | 16 | 236 | 8.0 | 24.1 | 0.00 | 0.00 | 0.00 | 79 | 1006.3 |
| 20260505162053 | 16 | 237 | 9.7 | 24.1 | 0.00 | 0.00 | 0.00 | 79 | 1006.3 |
| 20260505161551 | 16 | 260 | 9.7 | 25.7 | 0.00 | 0.00 | 0.00 | 78 | 1006.4 |
| 20260505161057 | 16 | 259 | 9.7 | 25.7 | 0.00 | 0.00 | 0.00 | 79 | 1006.3 |
| 20260505160532 | 17 | 252 | 8.0 | 17.7 | 0.00 | 0.00 | 0.00 | 79 | 1006.3 |